Change the Weather History Date:

Saturday, September 21, 2013

  Actual Average (KMEM) Record (KMEM)
Temperature  
Mean Temperature 67 °F 73 °F  
Max Temperature 77 °F 83 °F 98 °F (2010)
Min Temperature 57 °F 63 °F 44 °F (1875)
Degree Days  
Heating Degree Days 0 1  
Month to date heating degree days 1  
Since 1 July heating degree days 1  
Cooling Degree Days 2 9  
Month to date cooling degree days 251  
Year to date cooling degree days 2086  
Growing Degree Days 17 (Base 50)    
Moisture  
Dew Point 59 °F    
Average Humidity 75    
Maximum Humidity 100    
Minimum Humidity 44    
Precipitation  
Precipitation 0.14 in 0.10 in 3.65 in (1957)
Month to date precipitation 2.04  
Year to date precipitation 37.42  
Snow  
Snow 0.00 in 0.00 in 0.00 in (2002)
Month to date snowfall 0.0  
Since 1 July snowfall 0.0  
Since 1 September snowfall 0.0  
Snow Depth -    
Sea Level Pressure  
Sea Level Pressure 29.88 in    
Wind  
Wind Speed 10 mph (North)    
Max Wind Speed 17 mph    
Max Gust Speed 24 mph    
Visibility 10 miles    
Events Rain    
T = Trace of Precipitation, MM = Missing Value Source: NWS Daily Summary

Daily Weather History Graph

Daily Weather History Graph

Search for Another Location

Airport or City:

Trip Planner

Search our weather history database for the weather conditions in past years. The results will help you decide how hot, cold, wet, or windy it might be!

Date:

Astronomy

Sep. 21, 2013 Rise Set
Actual Time 6:48 AM CDT 6:59 PM CDT
Civil Twilight 6:23 AM CDT 7:24 PM CDT
Nautical Twilight 5:54 AM CDT 7:53 PM CDT
Astronomical Twilight 5:24 AM CDT 8:23 PM CDT
Moon 8:18 PM CDT (9/21) 9:00 AM CDT (9/21)
Length of Visible Light 13h 00m
Length of Day
12h 10m
Waning Gibbous, 94% of the Moon is Illuminated
Sep 21
Waning Gibbous
Sep 26
Last Quarter
Oct 4
New
Oct 11
First Quarter
Oct 18
Full

Hourly Weather History & Observations

Time (CDT) Temp. Dew Point Humidity Pressure Visibility Wind Dir Wind Speed Gust Speed Precip Events Conditions
12:15 AM 69.8 °F 68.0 °F 94% 29.83 in 5.0 mi North 3.5 mph - 0.02 in Rain Light Rain
12:35 AM 69.8 °F 68.0 °F 94% 29.83 in 5.0 mi North 6.9 mph - 0.06 in Rain Heavy Rain
12:55 AM 69.8 °F 68.0 °F 94% 29.82 in 5.0 mi North 5.8 mph - 0.11 in Rain Rain
1:15 AM 69.8 °F 68.0 °F 94% 29.83 in 10.0 mi NNW 10.4 mph - 0.01 in Rain Rain
1:35 AM 69.8 °F 68.0 °F 94% 29.83 in 10.0 mi North 12.7 mph - 0.03 in Rain Light Rain
1:55 AM 69.8 °F 68.0 °F 94% 29.84 in 10.0 mi NNW 10.4 mph - 0.03 in   Drizzle
2:15 AM 68.0 °F 68.0 °F 100% 29.83 in 10.0 mi North 8.1 mph - N/A   Mostly Cloudy
2:35 AM 68.0 °F 68.0 °F 100% 29.83 in 10.0 mi North 9.2 mph - N/A   Clear
2:55 AM 68.0 °F 68.0 °F 100% 29.83 in 10.0 mi North 11.5 mph - N/A   Mostly Cloudy
3:15 AM 68.0 °F 66.2 °F 94% 29.83 in 10.0 mi North 9.2 mph - N/A   Scattered Clouds
3:35 AM 68.0 °F 66.2 °F 94% 29.83 in 10.0 mi North 11.5 mph - N/A   Scattered Clouds
3:55 AM 68.0 °F 66.2 °F 94% 29.83 in 10.0 mi North 9.2 mph - N/A   Mostly Cloudy
4:15 AM 68.0 °F 66.2 °F 94% 29.83 in 10.0 mi North 8.1 mph - N/A   Overcast
4:35 AM 68.0 °F 66.2 °F 94% 29.84 in 10.0 mi North 15.0 mph 20.7 mph N/A   Overcast
4:55 AM 68.0 °F 64.4 °F 88% 29.84 in 10.0 mi North 12.7 mph 19.6 mph N/A   Overcast
5:15 AM 68.0 °F 64.4 °F 88% 29.85 in 10.0 mi North 11.5 mph - N/A   Overcast
5:35 AM 66.2 °F 64.4 °F 94% 29.85 in 10.0 mi North 13.8 mph 18.4 mph N/A   Overcast
5:55 AM 66.2 °F 62.6 °F 88% 29.86 in 10.0 mi North 12.7 mph - N/A   Overcast
6:15 AM 66.2 °F 62.6 °F 88% 29.87 in 10.0 mi North 13.8 mph 18.4 mph N/A   Overcast
6:35 AM 66.2 °F 62.6 °F 88% 29.87 in 10.0 mi North 11.5 mph 18.4 mph N/A   Overcast
6:55 AM 66.2 °F 62.6 °F 88% 29.87 in 10.0 mi North 15.0 mph - N/A   Overcast
7:15 AM 64.4 °F 62.6 °F 94% 29.88 in 10.0 mi North 15.0 mph - N/A   Overcast
7:35 AM 64.4 °F 62.6 °F 94% 29.89 in 10.0 mi North 12.7 mph - N/A   Overcast
7:55 AM 64.4 °F 60.8 °F 88% 29.89 in 10.0 mi North 13.8 mph 20.7 mph N/A   Scattered Clouds
8:15 AM 64.4 °F 60.8 °F 88% 29.90 in 10.0 mi North 13.8 mph 20.7 mph N/A   Scattered Clouds
8:35 AM 64.4 °F 60.8 °F 88% 29.90 in 10.0 mi North 11.5 mph - N/A   Scattered Clouds
8:55 AM 64.4 °F 59.0 °F 83% 29.91 in 10.0 mi North 13.8 mph 18.4 mph N/A   Clear
9:15 AM 64.4 °F 59.0 °F 83% 29.92 in 10.0 mi North 13.8 mph - N/A   Clear
9:35 AM 66.2 °F 59.0 °F 78% 29.92 in 10.0 mi North 16.1 mph - N/A   Clear
9:55 AM 68.0 °F 59.0 °F 73% 29.93 in 10.0 mi North 17.3 mph 24.2 mph N/A   Clear
10:15 AM 68.0 °F 59.0 °F 73% 29.93 in 10.0 mi North 17.3 mph - N/A   Clear
10:35 AM 68.0 °F 57.2 °F 68% 29.93 in 10.0 mi NNE 17.3 mph 21.9 mph N/A   Clear
10:55 AM 69.8 °F 55.4 °F 60% 29.93 in 10.0 mi NNE 15.0 mph - N/A   Clear
11:15 AM 69.8 °F 55.4 °F 60% 29.94 in 10.0 mi NNE 15.0 mph 19.6 mph N/A   Clear
11:35 AM 71.6 °F 55.4 °F 57% 29.93 in 10.0 mi North 11.5 mph 17.3 mph N/A   Clear
11:55 AM 71.6 °F 55.4 °F 57% 29.93 in 10.0 mi North 10.4 mph 13.8 mph N/A   Clear
12:15 PM 71.6 °F 55.4 °F 57% 29.93 in 10.0 mi NNE 13.8 mph 17.3 mph N/A   Clear
12:35 PM 73.4 °F 53.6 °F 50% 29.92 in 10.0 mi North 13.8 mph 20.7 mph N/A   Clear
12:55 PM 73.4 °F 53.6 °F 50% 29.92 in 10.0 mi North 12.7 mph - N/A   Clear
1:15 PM 73.4 °F 53.6 °F 50% 29.91 in 10.0 mi North 12.7 mph 19.6 mph N/A   Clear
1:35 PM 73.4 °F 53.6 °F 50% 29.90 in 10.0 mi North 13.8 mph 19.6 mph N/A   Clear
1:55 PM 75.2 °F 53.6 °F 47% 29.90 in 10.0 mi North 12.7 mph - N/A   Clear
2:15 PM 75.2 °F 53.6 °F 47% 29.89 in 10.0 mi North 16.1 mph 20.7 mph N/A   Clear
2:35 PM 77.0 °F 53.6 °F 44% 29.88 in 10.0 mi NNE 13.8 mph 17.3 mph N/A   Clear
2:55 PM 77.0 °F 53.6 °F 44% 29.88 in 10.0 mi North 10.4 mph 17.3 mph N/A   Clear
3:15 PM 77.0 °F 53.6 °F 44% 29.87 in 10.0 mi North 10.4 mph 17.3 mph N/A   Clear
3:35 PM 77.0 °F 53.6 °F 44% 29.87 in 10.0 mi North 12.7 mph 17.3 mph N/A   Clear
3:55 PM 77.0 °F 53.6 °F 44% 29.87 in 10.0 mi North 12.7 mph - N/A   Clear
4:15 PM 77.0 °F 53.6 °F 44% 29.87 in 10.0 mi North 10.4 mph 20.7 mph N/A   Clear
4:35 PM 75.2 °F 51.8 °F 44% 29.86 in 10.0 mi North 12.7 mph - N/A   Clear
4:55 PM 75.2 °F 51.8 °F 44% 29.86 in 10.0 mi North 12.7 mph 17.3 mph N/A   Clear
5:15 PM 75.2 °F 51.8 °F 44% 29.86 in 10.0 mi North 13.8 mph 17.3 mph N/A   Clear
5:35 PM 73.4 °F 51.8 °F 47% 29.86 in 10.0 mi North 11.5 mph 16.1 mph N/A   Clear
5:55 PM 73.4 °F 53.6 °F 50% 29.87 in 10.0 mi North 10.4 mph - N/A   Clear
6:15 PM 71.6 °F 51.8 °F 50% 29.87 in 10.0 mi North 11.5 mph - N/A   Clear
6:35 PM 69.8 °F 53.6 °F 56% 29.87 in 10.0 mi North 8.1 mph - N/A   Clear
6:55 PM 68.0 °F 55.4 °F 64% 29.87 in 10.0 mi North 6.9 mph - N/A   Clear
7:15 PM 64.4 °F 55.4 °F 73% 29.87 in 10.0 mi North 4.6 mph - N/A   Clear
7:35 PM 62.6 °F 57.2 °F 82% 29.88 in 10.0 mi North 5.8 mph - N/A   Clear
7:55 PM 62.6 °F 57.2 °F 82% 29.88 in 10.0 mi North 4.6 mph - N/A   Clear
8:15 PM 62.6 °F 57.2 °F 82% 29.88 in 10.0 mi North 4.6 mph - N/A   Clear
8:35 PM 62.6 °F 57.2 °F 82% 29.89 in 10.0 mi North 5.8 mph - N/A   Clear
8:55 PM 60.8 °F 55.4 °F 82% 29.89 in 10.0 mi North 5.8 mph - N/A   Clear
9:15 PM 60.8 °F 57.2 °F 88% 29.89 in 10.0 mi NNE 3.5 mph - N/A   Clear
9:35 PM 60.8 °F 55.4 °F 82% 29.89 in 10.0 mi NNE 4.6 mph - N/A   Clear
9:55 PM 60.8 °F 57.2 °F 88% 29.90 in 10.0 mi North 4.6 mph - N/A   Clear
10:15 PM 59.0 °F 55.4 °F 88% 29.90 in 10.0 mi Calm Calm - N/A   Clear
10:35 PM 59.0 °F 55.4 °F 88% 29.90 in 10.0 mi Calm Calm - N/A   Clear
10:55 PM 60.8 °F 55.4 °F 82% 29.90 in 10.0 mi NNE 3.5 mph - N/A   Clear
11:15 PM 59.0 °F 55.4 °F 88% 29.90 in 10.0 mi North 3.5 mph - N/A   Clear
11:35 PM 57.2 °F 55.4 °F 94% 29.89 in 10.0 mi NNE 4.6 mph - N/A   Clear
11:55 PM 59.0 °F 55.4 °F 88% 29.89 in 10.0 mi NNE 4.6 mph - N/A   Clear